GSAT0102 (GALILEO-FM2)

Last updated on Thu Sep 10 2026 00:02:46 GMT+0000 (Coordinated Universal Time)

1 37847U 11060B 26246.42885211 -.00000084 00000+0 00000+0 0 9999 2 37847 56.9635 339.6410 0001594 329.3167 62.9507 1.70475714 92467
UTC large
Height (km)
Speed (km/s)
/
Latitude / Longitude
Inclination (degrees)
Orbital Period (minutes)
Azimuth
Elevation
Range (km)
Doppler Factor

Next 0 passes for location: London (51.5072 / 0.1276)

No passes found over London.
GSAT0102 (GALILEO-FM2)